Theta_e
340 337 336 336 333 330 326 322 320 315 317 318 319 326 329 329 332 331 331 337 340 338 335 334 335 335 336 337 337 338 338 339 340 340 340 342 343 343
332 328 328 329 328 326 325 324 324 320 315 318 320 323 325 328 330 328 329 335 334 335 334 333 333 334 334 335 335 336 336 337 338 338 337 337 337 339
327 325 324 326 325 325 324 322 321 320 315 319 321 322 321 322 323 325 328 326 326 333 333 333 332 332 331 332 333 333 334 335 336 336 337 336 336 338
321 321 322 325 321 321 322 320 320 319 316 314 318 319 319 321 322 322 325 328 326 332 332 332 330 329 328 327 328 328 328 329 331 332 334 335 336 337
319 322 321 320 318 318 317 317 316 317 316 315 314 318 318 321 321 322 322 323 325 331 330 329 330 329 328 326 325 323 322 321 323 325 327 329 331 333
321 321 320 318 315 313 314 313 313 311 312 312 313 315 316 318 318 317 317 318 320 325 327 328 330 330 330 326 325 324 322 319 317 318 320 321 322 326
319 321 320 321 319 316 311 309 309 309 312 314 314 313 313 315 315 318 315 319 319 322 323 323 324 324 325 323 325 326 322 320 318 318 317 316 317 319
316 317 316 316 310 310 311 312 312 311 312 314 311 308 310 312 315 315 317 316 314 321 320 319 323 320 320 316 323 321 320 319 318 319 318 317 316 317
314 313 313 310 305 303 305 306 309 312 312 311 307 307 307 312 313 314 315 315 315 318 320 314 317 316 318 319 320 319 318 317 317 317 318 318 316 315
311 309 305 302 302 303 300 299 302 304 304 306 307 308 310 311 313 315 316 316 316 317 317 311 315 314 316 317 319 319 317 316 316 315 315 315 314 312
309 306 303 300 306 305 299 297 299 299 305 307 309 311 313 315 315 310 309 310 310 310 314 313 313 313 315 316 318 318 316 314 313 314 314 314 312 311
308 307 309 305 305 304 297 295 296 296 298 302 304 306 306 307 312 306 308 310 308 307 313 310 311 312 309 315 316 316 316 313 311 311 311 311 310 316
305 305 306 307 304 303 303 296 297 301 302 301 303 303 303 304 305 307 310 311 310 308 313 313 311 311 311 311 314 315 315 315 315 314 310 307 307 315
303 303 305 304 302 301 302 304 305 306 299 300 301 301 303 304 305 307 308 310 313 313 314 314 312 314 313 312 311 316 315 315 315 316 319 313 306 309
303 306 307 304 302 302 304 306 305 299 299 299 300 300 303 305 306 306 308 310 311 313 315 315 316 316 315 313 313 316 313 316 316 313 319 322 311 308
303 300 305 307 306 304 300 300 299 299 300 297 299 301 302 303 303 305 305 307 308 309 314 318 318 316 312 313 313 310 315 313 317 315 320 323 326 321
298 299 296 296 295 295 295 297 297 298 296 298 299 300 300 301 302 304 305 306 305 307 312 317 318 317 315 312 310 311 310 316 318 319 316 315 321 325
296 296 295 295 294 294 294 295 295 299 296 298 299 299 299 300 301 304 306 305 305 308 313 316 316 314 314 313 313 309 309 310 315 319 320 314 316 323
297 295 295 295 295 295 295 295 294 298 296 296 297 297 299 301 302 303 304 304 304 307 313 315 315 313 309 307 313 309 305 307 310 316 321 320 319 321
296 296 295 295 295 295 296 295 295 296 295 296 296 298 300 300 301 302 303 303 304 305 311 313 314 314 311 309 310 312 306 305 306 309 312 316 319 321
296 296 297 297 297 298 297 296 296 294 294 294 295 297 300 299 300 302 302 302 302 305 307 310 314 314 316 316 311 311 310 308 307 304 304 309 316 319
297 296 297 298 297 297 296 295 294 293 293 294 295 297 298 298 298 301 301 302 303 303 304 309 312 313 311 310 310 311 312 313 310 308 308 306 306 308
297 298 297 296 296 296 295 294 293 292 292 293 293 295 296 296 299 301 301 302 303 303 302 307 308 309 309 308 308 309 309 307 308 306 305 306 306 306
Wind_Speed
5 5 3 3 3 3 2 2 3 6 8 2 3 7 8 6 9 6 6 7 10 8 10 12 12 13 14 12 13 15 15 17 16 16 16 17 17 18
5 7 6 4 5 4 4 5 4 4 8 3 2 5 6 8 10 9 5 10 10 11 12 12 13 14 15 14 12 14 15 16 17 16 16 16 16 16
7 8 7 7 6 7 7 6 6 5 8 9 7 8 9 12 10 8 9 6 5 8 11 14 14 14 15 12 14 15 15 15 17 17 17 17 16 16
7 7 8 7 7 7 6 7 7 5 5 13 9 10 11 11 9 8 9 7 6 9 13 12 11 11 13 15 12 14 15 15 17 17 18 18 18 17
7 6 6 7 6 6 5 6 6 6 5 6 9 8 8 8 11 9 9 8 8 16 17 17 12 13 12 10 9 12 13 12 15 16 18 19 18 17
6 6 6 7 5 6 7 8 8 8 8 7 8 9 9 10 4 5 8 5 9 10 13 11 12 14 12 9 10 12 10 12 13 14 17 18 17 16
7 6 6 12 18 16 9 10 9 7 9 8 8 8 9 9 9 4 6 8 9 6 6 5 8 9 9 8 9 10 9 13 12 13 15 17 17 15
5 6 6 12 13 19 21 21 14 8 8 5 4 8 10 8 6 6 6 8 7 2 8 12 7 10 7 5 11 16 20 14 14 18 18 17 17 17
6 5 6 7 10 9 14 16 14 17 14 8 9 7 8 7 8 9 8 7 8 10 8 11 9 9 9 10 15 18 21 22 21 15 16 16 17 16
6 5 6 5 7 10 8 8 9 9 9 7 8 11 9 11 8 8 9 8 7 6 7 10 10 12 11 11 21 24 25 23 21 17 16 16 16 16
2 4 5 4 13 16 8 9 9 9 11 18 20 19 20 18 7 4 5 6 8 11 6 5 10 13 12 13 11 19 21 21 18 19 18 18 15 16
7 4 5 6 10 11 6 6 8 9 12 14 12 8 10 8 13 4 5 5 6 8 8 9 13 9 7 8 9 8 9 13 11 13 14 18 16 6
4 4 3 8 11 11 9 4 5 10 12 8 8 7 7 8 7 7 7 4 6 10 14 11 10 13 8 8 7 7 7 8 7 8 12 14 16 14
4 4 4 10 10 12 10 12 13 11 4 6 7 7 7 9 9 10 11 10 7 11 15 13 11 12 9 9 7 3 3 7 6 7 5 5 11 18
4 9 12 11 10 8 13 14 10 5 6 6 8 7 8 9 10 10 12 12 9 7 9 14 11 14 10 6 8 6 3 3 4 4 4 2 5 4
11 9 9 6 7 7 6 7 5 5 7 5 7 6 8 9 9 9 11 11 11 10 17 16 11 13 6 6 6 9 7 3 4 3 2 3 3 5
10 3 3 3 4 5 5 5 5 6 5 8 7 8 9 10 11 11 10 11 10 10 10 11 14 10 4 5 7 10 9 3 3 3 3 3 2 4
2 2 3 4 4 4 5 5 4 10 5 8 8 8 9 9 10 13 11 9 10 9 9 10 12 12 8 1 10 11 8 5 6 5 2 1 4 4
0 2 2 3 3 4 4 4 5 7 6 6 7 9 9 10 13 12 11 10 10 8 11 10 9 12 11 9 3 19 11 6 6 5 4 3 3 1
2 2 2 3 2 3 4 3 5 5 6 8 9 9 10 10 12 11 12 11 11 7 9 8 11 11 9 11 6 5 27 11 7 7 6 4 1 10
3 4 3 3 4 4 4 5 5 5 6 7 8 9 10 10 12 11 11 15 10 7 8 11 10 14 8 6 8 6 5 22 21 13 9 5 4 4
3 4 4 4 4 4 4 5 5 5 6 7 8 9 10 10 10 12 11 11 10 8 5 5 9 9 10 10 10 13 9 7 11 24 28 24 7 5
3 4 4 4 5 5 5 5 5 5 5 7 7 8 9 10 11 10 9 11 9 9 5 8 8 8 8 8 10 10 16 13 4 9 12 27 24 24
Wind_Direction
321 328 318 286 322 322 316 205 251 306 308 294 325 338 344 340 326 2 346 317 307 286 287 286 283 275 267 246 247 254 254 253 245 249 255 258 261 264
357 1 355 335 351 329 324 338 355 323 306 7 292 315 322 318 322 324 296 304 286 293 293 289 287 287 283 265 249 246 251 248 241 238 241 248 251 254
2 6 339 346 5 8 358 350 344 339 323 328 326 323 325 318 317 311 318 290 284 283 291 291 288 275 278 260 251 251 247 244 240 235 234 240 245 248
350 350 354 21 15 2 355 356 343 346 336 319 320 322 319 316 299 311 311 316 320 309 304 296 291 297 284 280 267 262 251 244 245 238 237 238 242 245
335 1 17 25 30 2 354 351 335 327 306 306 313 309 312 323 322 324 331 328 326 319 313 309 307 297 299 298 285 276 267 260 259 247 237 236 237 239
337 5 29 54 30 357 357 349 341 332 324 321 315 315 325 320 299 318 328 324 313 312 303 288 290 306 295 283 288 291 277 262 264 258 242 245 230 229
342 5 39 35 18 5 355 342 329 326 324 327 319 325 327 326 315 323 308 314 309 291 304 308 312 301 294 293 297 272 277 301 295 287 254 239 236 236
2 26 29 39 8 356 351 343 332 328 331 323 329 324 313 312 317 314 313 320 319 348 334 306 293 282 273 261 277 293 293 284 286 287 269 236 232 229
59 38 37 25 1 348 336 338 328 341 348 338 317 304 304 301 306 308 312 307 297 294 294 299 302 286 290 283 284 282 281 279 279 270 262 242 230 230
51 65 62 9 350 343 327 332 327 331 326 318 300 290 277 285 283 279 286 283 280 280 278 289 299 291 293 284 281 278 276 272 269 257 254 255 238 227
89 84 68 1 351 349 336 324 331 331 327 321 311 298 289 292 298 315 320 321 319 313 321 295 303 299 293 284 273 266 267 269 261 252 245 240 225 221
329 120 43 18 337 329 330 324 324 321 328 325 324 319 327 316 324 316 290 325 326 323 320 305 299 304 295 277 266 254 259 257 263 261 239 236 216 194
319 336 344 337 319 324 316 297 273 302 310 311 301 328 325 332 324 317 307 295 307 298 299 318 301 298 285 292 280 263 249 255 262 262 252 230 211 183
318 319 311 298 307 322 323 313 312 313 302 327 329 330 333 339 332 318 302 298 247 248 287 306 301 307 306 298 288 280 236 249 250 272 262 217 203 192
334 326 322 287 308 323 323 330 337 339 342 351 341 326 331 320 317 319 317 310 295 261 276 313 316 325 323 305 315 312 302 272 243 246 289 277 158 147
342 325 312 312 347 354 351 346 345 333 347 332 333 319 325 330 327 329 321 325 325 334 335 334 334 337 329 341 335 334 321 302 331 302 274 317 130 159
320 313 5 18 9 355 345 337 332 333 342 338 333 336 334 334 329 327 321 325 331 332 333 337 338 339 294 306 336 349 335 315 313 311 354 338 279 219
312 313 358 17 11 356 347 329 321 342 326 340 335 337 331 331 327 326 325 330 330 338 340 343 336 345 352 133 45 357 347 318 331 320 276 240 274 244
325 3 24 20 357 351 349 334 315 336 326 339 333 331 330 328 331 328 327 332 337 339 348 348 338 356 353 353 326 41 354 336 326 327 318 250 258 312
18 333 340 14 346 354 346 328 323 340 353 345 337 332 331 331 329 325 333 333 339 332 348 356 1 352 353 342 326 37 28 13 359 342 333 316 322 128
12 344 333 21 3 14 355 344 356 354 346 340 338 332 332 333 329 319 332 331 330 343 345 359 342 336 341 321 4 18 48 49 40 25 349 335 7 40
29 349 341 39 26 30 5 351 4 357 346 345 339 329 329 328 327 321 331 337 337 346 321 318 349 359 9 3 0 7 12 33 46 47 45 41 9 37
21 351 8 37 27 27 9 355 16 350 333 330 325 319 324 325 323 322 330 339 338 346 338 358 353 3 9 6 1 2 19 18 23 43 53 49 46 57